[[{"header":{"parameterUnit":"m.s-1","parameterCategory":1,"la1":30.2991,"la2":30.254,"lo1":-89.0895,"lo2":-89.0444,"dy":0.0017,"dx":0.0017,"nx":28,"ny":28,"refTime":"2024-03-08T03:00:00:Z","depth":0,"parameterNumber":2,"parameterNumberName":"U-component_of_WINDS"},"data":[0,0,0,0,0,0,0,0,0,0,0,0,0,0,0,0,0,0,0,0,0,0,0,0,0,0,0,0,0,0,0,0,0,0,0,0,0,0,0,0,0,0,0,0,0,0,0,0,0,0,0,0,0,0,0,0,0,0,2.4552,2.4553,0,2.4557,2.4557,2.4557,2.4512,2.4511,2.451,2.4509,2.4514,2.4515,2.4516,0,0,0,0,0,0,0,0,0,0,0,0,0,2.4506,2.4507,2.4552,2.4553,2.4553,2.4557,2.4557,2.4557,2.4513,2.4511,2.451,2.4508,2.4513,2.4515,2.4517,0,0,0,0,0,0,0,0,0,0,0,0,0,2.452,2.4508,2.4552,2.4531,2.4529,2.4557,2.4557,2.4557,2.4513,2.4511,2.4509,2.4507,2.4513,2.4515,2.4517,2.4566,0,0,2.4523,2.4524,0,0,0,0,0,0,0,0,2.4519,2.4522,2.4534,2.4532,2.453,2.4532,2.4543,2.456,2.4513,2.4519,2.4509,2.4507,2.4522,2.4523,2.4528,2.4566,2.4566,2.4523,2.4524,2.4525,2.4525,0,0,0,0,0,0,0,2.4518,2.4521,2.4554,2.4534,2.4532,2.4521,2.4521,2.4546,2.4531,2.4518,2.4515,2.4516,2.452,2.4526,2.4527,2.4567,2.4523,2.4525,2.4526,2.4527,2.4648,2.465,0,0,0,0,0,0,2.452,2.4521,2.4554,2.4554,2.452,2.4524,2.4524,2.4534,2.453,2.4528,2.4518,2.4514,2.4523,2.4525,2.4527,2.4586,2.4525,2.4527,2.4528,2.4646,2.4648,2.4651,0,0,0,0,0,0,2.4519,2.4524,2.4554,2.4537,2.454,2.4526,2.4538,2.4535,2.454,2.453,2.4527,2.4526,2.4522,2.4525,2.4557,2.4586,2.4528,2.4529,2.4643,2.4647,2.4649,2.4704,0,0,0,0,0,0,2.4518,2.4524,2.4542,2.4538,2.4541,2.4583,2.454,2.4536,2.4544,2.4539,2.4537,2.4535,2.4521,2.4555,2.4559,2.4587,2.4531,2.4641,2.4645,2.4648,2.4699,2.4708,2.4716,0,0,0,0,0,2.4517,2.4556,2.4543,2.4547,2.4563,2.4585,2.4587,2.457,2.4546,2.4565,2.4558,2.4535,2.4582,2.4558,2.4563,2.4592,2.4639,2.4644,2.4648,2.4695,2.4706,2.4716,0,0,0,0,0,0,2.4564,2.4555,2.454,2.458,2.4584,2.4577,2.46,2.4582,2.4592,2.4587,2.4565,2.4565,2.4602,2.46,2.4574,2.4641,2.4606,2.4612,2.4641,2.4651,2.4659,2.4659,2.4532,0,0,0,0,0,2.4579,2.4597,2.4589,2.4624,2.4627,2.4614,2.4622,2.4609,2.4612,2.4613,2.4609,2.4613,2.4629,2.464,2.4653,2.4699,2.4698,2.4721,2.473,2.4736,2.4742,2.4767,2.4778,2.4666,2.4666,2.4666,0,0,2.461,2.4608,2.462,2.4634,2.4635,2.4655,2.4615,2.4637,2.4652,2.4617,2.4647,2.4645,2.4648,2.4688,2.4705,2.4687,2.4773,2.4742,2.4748,2.475,2.4773,2.4784,2.4793,2.4669,2.4668,2.4668,0,0,2.4677,2.4677,2.4707,2.471,2.4713,2.4704,2.4711,2.4708,2.4705,2.4736,2.471,2.4727,2.4754,2.4758,2.4764,2.4835,2.4814,2.484,2.4883,2.4908,2.4917,2.4925,2.4951,2.4961,2.4845,2.4845,2.4845,0,2.4716,2.4745,2.4725,2.475,2.4757,2.4726,2.4758,2.4761,2.4768,2.4774,2.4754,2.4789,2.4789,2.483,2.4847,2.4852,2.4861,2.484,2.4917,2.4925,2.4932,2.4957,2.4967,2.4848,2.4848,2.4848,2.4847,0,2.4792,2.4813,2.4837,2.4846,2.4856,2.4883,2.4869,2.4882,2.4868,2.4861,2.4894,2.4892,2.4906,2.4915,2.4901,2.4954,2.4944,2.4921,2.4886,2.4946,2.4969,2.4979,2.4853,2.4852,2.4851,2.485,0,0,2.4889,2.4887,2.4897,2.4901,2.4902,2.4918,2.4945,2.4959,2.4971,2.4977,2.5,2.5024,2.5004,2.5011,2.4997,2.5019,2.5077,2.4994,2.4994,2.501,2.5137,2.5155,2.5167,2.5063,2.5065,2.5066,2.5138,0,2.4955,2.5001,2.4986,2.5033,2.5052,2.5024,2.5048,2.5052,2.5047,2.5063,2.5057,2.5075,2.5046,2.505,2.5071,2.5066,2.5102,2.506,2.5085,2.5087,2.5086,2.5178,2.5197,2.5264,2.5146,2.5148,2.5149,0,2.5039,2.505,2.5099,2.5099,2.5106,2.5128,2.514,2.5156,2.516,2.5155,2.5163,2.5145,2.5173,2.5138,2.5176,2.5148,2.5157,2.5156,2.5159,2.5161,2.5122,2.5184,2.5285,2.5295,2.5163,2.5162,2.5161,0,2.5106,2.5132,2.5166,2.517,2.517,2.5186,2.5187,2.519,2.52,2.5211,2.5217,2.5231,2.5239,2.525,2.5237,2.5213,2.5278,2.5241,2.5275,2.5276,2.5291,2.529,2.5395,2.5296,2.5295,2.5295,2.5295,0,2.5182,2.5214,2.5196,2.5217,2.5252,2.5234,2.5269,2.5267,2.527,2.529,2.5266,2.5286,2.5267,2.5285,2.5275,2.5309,2.5313,2.531,2.5307,2.5313,2.5313,2.5319,2.5314,2.5298,2.5297,2.5297,2.5296,0,2.5263,2.5253,2.5287,2.5285,2.5285,2.5311,2.531,2.5329,2.5323,2.5349,2.5354,2.5344,2.5365,2.5353,2.5373,2.5367,2.5411,2.5402,2.541,2.5408,2.5443,2.544,2.5556,2.5571,2.5461,2.5462,2.5463,0,2.5313,2.5337,2.5338,2.535,2.5353,2.5372,2.5382,2.5366,2.5378,2.5386,2.5404,2.5423,2.5437,2.5471,2.5466,2.5482,2.5473,2.5513,2.5475,2.5481,2.5475,2.5474,2.5477,2.552,2.5522,2.5523,2.5523,0,2.5403,2.5397,2.5413,2.5427,2.5441,2.5451,2.5459,2.5471,2.5455,2.5469,2.549,2.5501,2.5523,2.5542,2.5556,2.5557,2.5538,2.5535,2.5544,2.5551,2.5555,2.5554,2.5432,2.5533,2.5532,2.5531,2.5531,2.553,2.5471,2.5492,2.5496,2.5515,2.552,2.5528,2.5547,2.5544,2.5561,2.5577,2.5566,2.5591,2.5597,2.5614,2.5618,2.5638,2.5622,2.5634,2.5638,2.5641,2.5647,2.5551,2.564,2.564,2.5639,2.5639,2.5639,0,2.5561,2.5563,2.558,2.5593,2.5609,2.5589,2.5598,2.5612,2.5635,2.5641,2.5656,2.5681,2.5699,2.5696,2.5714,2.573,2.5722,2.5735,2.5734,2.5736,2.5659,2.565,2.5742,2.5742,2.5742,2.5742,2.5742,2.5742,2.561,2.5644,2.5639,2.5676,2.5677,2.5701,2.5708,2.5717,2.5722,2.5751,2.5767,2.5765,2.5768,2.5786,2.5802,2.5801,2.5809,2.5826,2.5822,2.5751,2.5741,2.5731,2.5722,2.5827,2.5828,2.5896,2.5897,2.5897]},{"header":{"parameterUnit":"m.s-1","parameterCategory":1,"la1":30.2991,"la2":30.254,"lo1":-89.0895,"lo2":-89.0444,"dy":0.0017,"dx":0.0017,"nx":28,"ny":28,"refTime":"2024-03-08T03:00:00:Z","depth":0,"parameterNumber":3,"parameterNumberName":"V-component_of_WINDS"},"data":[0,0,0,0,0,0,0,0,0,0,0,0,0,0,0,0,0,0,0,0,0,0,0,0,0,0,0,0,0,0,0,0,0,0,0,0,0,0,0,0,0,0,0,0,0,0,0,0,0,0,0,0,0,0,0,0,0,0,-2.0405,-2.0405,0,-2.0409,-2.0409,-2.0409,-2.0414,-2.0414,-2.0415,-2.0415,-2.042,-2.042,-2.042,0,0,0,0,0,0,0,0,0,0,0,0,0,-2.0401,-2.0401,-2.0405,-2.0405,-2.0405,-2.0409,-2.0409,-2.0409,-2.0414,-2.0414,-2.0415,-2.0415,-2.0419,-2.042,-2.042,0,0,0,0,0,0,0,0,0,0,0,0,0,-2.0404,-2.0401,-2.0405,-2.0408,-2.0408,-2.0409,-2.0409,-2.0409,-2.0414,-2.0414,-2.0415,-2.0415,-2.0419,-2.042,-2.042,-2.0418,0,0,-2.042,-2.042,0,0,0,0,0,0,0,0,-2.0403,-2.0404,-2.0407,-2.0408,-2.0408,-2.0411,-2.041,-2.0412,-2.0414,-2.0412,-2.0415,-2.0415,-2.0417,-2.0417,-2.0418,-2.0418,-2.0419,-2.042,-2.042,-2.042,-2.042,0,0,0,0,0,0,0,-2.0403,-2.0404,-2.0407,-2.0407,-2.0408,-2.0409,-2.041,-2.041,-2.0414,-2.0412,-2.0413,-2.0413,-2.0417,-2.0418,-2.0418,-2.0419,-2.042,-2.042,-2.042,-2.042,-2.0419,-2.0419,0,0,0,0,0,0,-2.0402,-2.0403,-2.0406,-2.0407,-2.0406,-2.0409,-2.041,-2.041,-2.0414,-2.0414,-2.0413,-2.0413,-2.0417,-2.0418,-2.0418,-2.0417,-2.042,-2.042,-2.042,-2.042,-2.0419,-2.0419,0,0,0,0,0,0,-2.0402,-2.0403,-2.0406,-2.0405,-2.0406,-2.0409,-2.041,-2.041,-2.0411,-2.0414,-2.0415,-2.0413,-2.0417,-2.0418,-2.0418,-2.0417,-2.042,-2.042,-2.042,-2.042,-2.0419,-2.0415,0,0,0,0,0,0,-2.0402,-2.0403,-2.0402,-2.0405,-2.0406,-2.0406,-2.0409,-2.041,-2.0411,-2.0411,-2.0414,-2.0415,-2.0418,-2.0418,-2.0418,-2.0417,-2.042,-2.042,-2.042,-2.0419,-2.0415,-2.0414,-2.0414,0,0,0,0,0,-2.0402,-2.04,-2.0402,-2.0402,-2.0405,-2.0406,-2.0406,-2.0409,-2.0411,-2.041,-2.0413,-2.0415,-2.0417,-2.0418,-2.0419,-2.0418,-2.042,-2.042,-2.0419,-2.0415,-2.0415,-2.0414,0,0,0,0,0,0,-2.0397,-2.0401,-2.0402,-2.0402,-2.0403,-2.0407,-2.0406,-2.0408,-2.041,-2.041,-2.0414,-2.0414,-2.0415,-2.0416,-2.0417,-2.0417,-2.0419,-2.0419,-2.0416,-2.0415,-2.0415,-2.0414,-2.042,0,0,0,0,0,-2.0395,-2.0396,-2.0399,-2.0398,-2.0399,-2.0403,-2.0403,-2.0405,-2.0407,-2.0408,-2.041,-2.0413,-2.0414,-2.0415,-2.0416,-2.0415,-2.0416,-2.0415,-2.0415,-2.0414,-2.0414,-2.0414,-2.0414,-2.0419,-2.0419,-2.0419,0,0,-2.0393,-2.0395,-2.0395,-2.0397,-2.0399,-2.04,-2.0403,-2.0404,-2.0404,-2.0408,-2.0409,-2.0411,-2.0413,-2.0413,-2.0414,-2.0415,-2.0413,-2.0414,-2.0414,-2.0414,-2.0414,-2.0414,-2.0413,-2.0419,-2.0419,-2.0419,0,0,-2.0388,-2.039,-2.0389,-2.0391,-2.0394,-2.0396,-2.0396,-2.0399,-2.0401,-2.0401,-2.0405,-2.0406,-2.0408,-2.041,-2.0411,-2.0408,-2.041,-2.0408,-2.0406,-2.0406,-2.0406,-2.0405,-2.0405,-2.0404,-2.0408,-2.0408,-2.0408,0,-2.0384,-2.0385,-2.0389,-2.0389,-2.039,-2.0394,-2.0394,-2.0396,-2.0399,-2.0399,-2.0401,-2.0404,-2.0406,-2.0407,-2.0406,-2.0407,-2.0407,-2.0408,-2.0406,-2.0405,-2.0405,-2.0404,-2.0404,-2.0408,-2.0408,-2.0408,-2.0408,0,-2.0381,-2.0382,-2.0381,-2.0384,-2.0385,-2.0385,-2.0389,-2.039,-2.0392,-2.0394,-2.0395,-2.0398,-2.04,-2.0401,-2.0403,-2.0402,-2.0403,-2.0405,-2.0407,-2.0404,-2.0404,-2.0404,-2.0408,-2.0408,-2.0408,-2.0408,0,0,-2.0372,-2.0378,-2.0377,-2.0379,-2.0383,-2.0383,-2.0384,-2.0386,-2.0387,-2.0389,-2.039,-2.0392,-2.0394,-2.0396,-2.0398,-2.0399,-2.0397,-2.0401,-2.0401,-2.04,-2.0397,-2.0395,-2.0395,-2.0399,-2.0398,-2.0398,-2.0397,0,-2.0369,-2.037,-2.0373,-2.0373,-2.0374,-2.0378,-2.0379,-2.0382,-2.0384,-2.0385,-2.0388,-2.039,-2.0392,-2.0393,-2.0394,-2.0397,-2.0396,-2.0397,-2.04,-2.04,-2.0399,-2.0395,-2.0393,-2.0391,-2.0396,-2.0396,-2.0396,0,-2.0364,-2.0366,-2.0366,-2.037,-2.0371,-2.0371,-2.0374,-2.0375,-2.0379,-2.0381,-2.0383,-2.0386,-2.0387,-2.0389,-2.0391,-2.0392,-2.0393,-2.0395,-2.0395,-2.0395,-2.0398,-2.0395,-2.039,-2.039,-2.0396,-2.0396,-2.0396,0,-2.0358,-2.0361,-2.0362,-2.0363,-2.0368,-2.0368,-2.037,-2.0373,-2.0375,-2.0377,-2.0378,-2.0381,-2.0383,-2.0385,-2.0389,-2.039,-2.0391,-2.0393,-2.0392,-2.0392,-2.0392,-2.0392,-2.0388,-2.0393,-2.0393,-2.0393,-2.0393,0,-2.0353,-2.0353,-2.0359,-2.0359,-2.036,-2.0364,-2.0364,-2.0367,-2.037,-2.0371,-2.0375,-2.0377,-2.0382,-2.0384,-2.0387,-2.0388,-2.0389,-2.0391,-2.0391,-2.039,-2.039,-2.0391,-2.0391,-2.0393,-2.0393,-2.0393,-2.0393,0,-2.0346,-2.035,-2.0351,-2.0356,-2.0357,-2.0357,-2.0362,-2.0362,-2.0366,-2.0367,-2.0368,-2.0373,-2.0375,-2.0379,-2.0383,-2.0385,-2.0386,-2.0388,-2.0385,-2.0386,-2.0385,-2.0385,-2.0381,-2.0381,-2.0386,-2.0386,-2.0386,0,-2.0343,-2.0343,-2.0348,-2.0349,-2.0351,-2.0353,-2.0355,-2.0359,-2.0361,-2.0365,-2.0365,-2.0368,-2.0371,-2.0375,-2.0379,-2.0382,-2.0383,-2.0382,-2.0384,-2.0383,-2.0384,-2.0384,-2.0384,-2.0381,-2.0381,-2.0381,-2.0381,0,-2.0337,-2.0339,-2.0341,-2.0344,-2.0346,-2.0348,-2.0351,-2.0352,-2.0357,-2.0359,-2.0361,-2.0363,-2.0368,-2.0371,-2.0374,-2.0377,-2.038,-2.0381,-2.0381,-2.0379,-2.0378,-2.0379,-2.0384,-2.0381,-2.0381,-2.0381,-2.0381,-2.0381,-2.0332,-2.0332,-2.0336,-2.0338,-2.0341,-2.0344,-2.0345,-2.0348,-2.0351,-2.0354,-2.0357,-2.036,-2.0364,-2.0369,-2.0372,-2.0374,-2.0375,-2.0375,-2.0375,-2.0375,-2.0375,-2.0378,-2.0375,-2.0375,-2.0375,-2.0375,-2.0375,0,-2.0326,-2.0329,-2.0331,-2.0335,-2.0337,-2.034,-2.0343,-2.0345,-2.0347,-2.035,-2.0353,-2.0356,-2.036,-2.0364,-2.0368,-2.0369,-2.0371,-2.037,-2.037,-2.037,-2.0374,-2.0373,-2.0369,-2.0369,-2.0369,-2.0369,-2.0369,-2.0369,-2.0323,-2.0324,-2.0327,-2.033,-2.0333,-2.0335,-2.0337,-2.034,-2.0343,-2.0346,-2.0349,-2.0352,-2.0356,-2.036,-2.0364,-2.0365,-2.0366,-2.0365,-2.0367,-2.037,-2.037,-2.0371,-2.037,-2.0365,-2.0365,-2.0364,-2.0364,-2.0364]}]]